Regional Weather Roundup
Issued by NWS

Home | Current Version | Previous Version | Graphics & Text | Print | Product List | Glossary On
Versions: 1 2 3 4 5 6 7 8 9 10 11 12 13 14 15 16 17 18 19 20 21 22 23 24 25 26 27 28 29 30 31 32 33 34 35 36 37 38 39 40 41 42 43 44 45 46 47 48 49 50
000
ASUS45 KABQ 240210
RWRNM
WEATHER ROUNDUP FOR NEW MEXICO
NATIONAL WEATHER SERVICE ALBUQUERQUE NM
800 PM MDT WED JUL 23 2014

NOTE: "FAIR" MEANS FEW OR NO CLOUDS BELOW 12,000 FEET AGL WITH NO
       SIGNIFICANT WEATHER OR OBSTRUCTIONS TO VISION.

      THIS PRODUCT IS RELEASED AS TWO VERSIONS.  ONE VERSION NEAR
      THE TOP OF THE HOUR CONTAINING PRELIMINARY DATA FROM ALBUQUERQUE
      AND OTHER STATIONS.  A FINAL VERSION WITH ADDITIONAL DATA IS
      ISSUED ABOUT 10 MINUTES AFTER THE HOUR.

NMZ501-503-504-510>518-240300-
NORTHWEST PLATEAU/NORTHCENTRAL MOUNTAINS

CITY           SKY/WX    TMP DP  RH WIND       PRES   REMARKS
FARMINGTON     CLEAR     87  49  26 S20G32    30.19R
LOS ALAMOS     PTCLDY    73  48  41 SW6       30.45F
SANTA FE       MOCLDY    73  55  53 SE3       30.37S
TAOS           MOCLDY    70  54  56 SE5       30.46S
ANGEL FIRE     FAIR      64  48  56 S3        30.56R

$$
NMZ402-403-502-505>509-240300-
WESTCENTRAL MOUNTAINS/SOUTHWEST MOUNTAINS

CITY           SKY/WX    TMP DP  RH WIND       PRES   REMARKS
GALLUP         CLOUDY    70  58  65 S13       30.33F
GRANTS         MOCLDY    78  48  34 S10       30.38R
SILVER CITY    MOCLDY    84  41  21 SE14      30.26S

$$
NMZ407-409-411-412-240300-
SOUTHERN DESERTS

CITY           SKY/WX    TMP DP  RH WIND       PRES   REMARKS
LORDSBURG      MOCLDY    90  46  22 E12G17    30.13F
DEMING         PTCLDY    88  45  22 SE9       30.15R
LAS CRUCES     CLEAR     88  42  20 SE9       30.19R
HOLLOMAN AFB   PTCLDY    91  45  19 E12       30.14R
ALAMOGORDO     PTCLDY    88  41  19 SE14      30.17S
T OR C         LGT RAIN  83  57  41 CALM      30.21R

$$
NMZ519>523-240300-
CENTRAL VALLEYS/CENTRAL HIGHLANDS

CITY           SKY/WX    TMP DP  RH WIND       PRES   REMARKS
ALBUQUERQUE    MOCLDY    84  54  35 N7        30.27S
DOUBLE EAGLE   MOCLDY    79  55  44 N12       30.33R
MORIARTY ARPT  FAIR      78  42  27 SE7       30.37F
CLINES CORNERS MOCLDY    73  48  41 SE8       30.43R
BELEN          FAIR      82  50  33 SW6       30.25S
SOCORRO        FAIR      87  46  24 SW5       30.22S

$$
NMZ524>526-539-540-240300-
SOUTHCENTRAL MOUNTAINS

CITY           SKY/WX    TMP DP  RH WIND       PRES   REMARKS
RUIDOSO        CLEAR     73  43  33 MISG      30.43S

$$
NMZ527>531-240300-
NORTHEAST HIGHLANDS/NORTHEAST PLAINS

CITY           SKY/WX    TMP DP  RH WIND       PRES   REMARKS
LAS VEGAS      MOCLDY    75  44  33 SE9       30.42F
RATON          NOT AVBL
CLAYTON        CLEAR     82  48  30 S8        30.27R

$$
NMZ532>537-240300-
EASTCENTRAL PLAINS

CITY           SKY/WX    TMP DP  RH WIND       PRES   REMARKS
TUCUMCARI      CLEAR     88  52  29 S9        30.19R
CANNON AFB     CLEAR     82  60  46 E6        30.24R
CLOVIS AIRPORT NOT AVBL

$$
NMZ028-029-538-240300-
SOUTHEAST PLAINS

CITY           SKY/WX    TMP DP  RH WIND       PRES   REMARKS
ROSWELL        CLEAR     90  50  25 E7        30.14S
ARTESIA        CLEAR     91  48  22 E5        30.13S
CARLSBAD       PTCLDY    94  42  16 SE8       30.10R
HOBBS          CLEAR     90  48  24 E9        30.17R


$$


USA.gov is the U.S. government's official web portal to all federal, state and local government web resources and services.